Location: Tucson
(32.2217°N, 110.9265°W)
Time: 10:00:30
(UTC-07:00)

STARLINK-3116 - Pass Details

Date: 28 September 2021
Orbit: 357 x 362 km, 70.0° (Epoch: 21 October)

Event Time Altitude Azimuth Distance (km) Brightness Sun altitude
Rises 05:34:20 0° 160° (SSE) 2,166 6.9 -9.6°
Reaches altitude 10° 05:37:25 10° 123° (ESE) 1,330 6.5 -9.0°
Maximum altitude 05:38:22 11° 104° (ESE) 1,263 6.9 -8.8°
Drops below altitude 10° 05:39:21 10° 84° (E) 1,335 7.3 -8.6°
Sets 05:42:22 0° 48° (NE) 2,162 7.5 -7.9°
